User: anonymous   Login
Location: Unspecified
(0.0000°N, 0.0000°E)
Time: 00:10:29
(UTC+00:00)
Language:

ERS-2 - Orbit

View from above orbital plane
View from above orbital plane
View from above satellite
View from above satellite

Ground track
Ground track

The orbit data is extracted from the following two-line orbital elements,

1 23560U 95021A   18112.58826887 +.00001450 +00000-0 +68047-4 0  9997
2 23560 098.5424 151.7271 0003112 356.7192 003.4020 15.21655378222394
Epoch (UTC): 22 April 2018 14:07:06
Eccentricity: 0.0003112
inclination: 98.5424°
perigee height: 499 km
apogee height: 503 km
right ascension of ascending node: 151.7271°
argument of perigee: 356.7192°
revolutions per day: 15.21655378
mean anomaly at epoch: 3.4020°
orbit number at epoch: 22239

The dashed part of the orbit path shows where the satellite is in the earth's shadow,  

DLR